QPF
0.03 0.02 0.01 0.01 0.01 0.01 0.01 0.01 0.01 0.01 0.00 0.00 0.00 0.00 0.00 0.00 0.00 0.00 0.00 0.00 0.00 0.00 0.00 0.00 0.00 0.01 0.01 0.01 0.01 0.01 0.02 0.02 0.02 0.02 0.03 0.03 0.04 0.04
0.03 0.02 0.01 0.01 0.01 0.01 0.01 0.01 0.01 0.01 0.01 0.00 0.00 0.00 0.00 0.00 0.00 0.00 0.00 0.00 0.00 0.00 0.00 0.00 0.00 0.00 0.01 0.01 0.01 0.01 0.01 0.01 0.02 0.02 0.02 0.03 0.04 0.04
0.03 0.02 0.02 0.02 0.01 0.01 0.01 0.01 0.01 0.01 0.01 0.00 0.00 0.00 0.00 0.00 0.00 0.00 0.00 0.00 0.00 0.00 0.00 0.01 0.01 0.01 0.01 0.01 0.01 0.01 0.01 0.01 0.01 0.01 0.02 0.02 0.03 0.03
0.03 0.02 0.02 0.01 0.01 0.01 0.01 0.01 0.01 0.01 0.01 0.01 0.00 0.00 0.00 0.00 0.00 0.00 0.00 0.00 0.00 0.00 0.00 0.00 0.01 0.01 0.01 0.01 0.01 0.01 0.01 0.01 0.01 0.01 0.01 0.02 0.02 0.03
0.05 0.04 0.03 0.02 0.01 0.01 0.01 0.01 0.01 0.01 0.01 0.01 0.01 0.00 0.00 0.00 0.00 0.00 0.00 0.00 0.00 0.00 0.00 0.00 0.00 0.01 0.01 0.01 0.01 0.01 0.01 0.01 0.01 0.01 0.02 0.02 0.02 0.02
0.05 0.06 0.06 0.04 0.02 0.01 0.01 0.01 0.02 0.02 0.01 0.01 0.01 0.01 0.01 0.01 0.01 0.01 0.00 0.00 0.00 0.00 0.00 0.00 0.00 0.01 0.01 0.01 0.01 0.01 0.01 0.01 0.01 0.01 0.01 0.02 0.02 0.02
0.06 0.07 0.07 0.08 0.07 0.05 0.03 0.03 0.03 0.03 0.02 0.01 0.01 0.01 0.01 0.01 0.01 0.01 0.01 0.01 0.01 0.00 0.00 0.00 0.00 0.00 0.00 0.00 0.00 0.01 0.01 0.01 0.01 0.01 0.01 0.01 0.01 0.01
0.08 0.08 0.07 0.07 0.07 0.08 0.07 0.06 0.05 0.04 0.03 0.02 0.02 0.02 0.02 0.02 0.02 0.02 0.02 0.02 0.01 0.01 0.00 0.00 0.01 0.00 0.00 0.00 0.01 0.01 0.01 0.01 0.01 0.01 0.01 0.01 0.01 0.01
0.07 0.06 0.06 0.06 0.06 0.06 0.07 0.07 0.07 0.06 0.05 0.04 0.05 0.05 0.04 0.04 0.04 0.03 0.02 0.02 0.01 0.01 0.01 0.01 0.00 0.00 0.00 0.00 0.00 0.00 0.00 0.01 0.01 0.01 0.01 0.01 0.01 0.01
0.06 0.05 0.04 0.04 0.05 0.05 0.05 0.05 0.05 0.06 0.07 0.06 0.05 0.05 0.05 0.04 0.04 0.03 0.02 0.01 0.01 0.01 0.01 0.00 0.00 0.00 0.00 0.00 0.00 0.00 0.00 0.00 0.00 0.01 0.01 0.01 0.01 0.01
0.05 0.05 0.04 0.03 0.04 0.04 0.04 0.04 0.04 0.04 0.05 0.05 0.04 0.04 0.03 0.03 0.02 0.01 0.01 0.01 0.01 0.00 0.00 0.00 0.00 0.00 0.00 0.00 0.00 0.00 0.00 0.00 0.00 0.00 0.01 0.01 0.01 0.01
0.05 0.05 0.05 0.04 0.04 0.04 0.04 0.04 0.04 0.04 0.04 0.03 0.02 0.02 0.02 0.01 0.01 0.01 0.01 0.02 0.02 0.01 0.01 0.01 0.01 0.01 0.01 0.00 0.00 0.00 0.00 0.00 0.00 0.00 0.01 0.01 0.01 0.00
0.05 0.04 0.04 0.05 0.04 0.03 0.03 0.03 0.04 0.04 0.04 0.03 0.03 0.02 0.02 0.02 0.02 0.01 0.01 0.02 0.02 0.02 0.01 0.01 0.02 0.01 0.01 0.01 0.00 0.00 0.00 0.00 0.00 0.00 0.01 0.01 0.01 0.01
0.04 0.04 0.04 0.04 0.03 0.03 0.03 0.03 0.03 0.02 0.02 0.01 0.01 0.01 0.01 0.01 0.01 0.01 0.01 0.01 0.01 0.01 0.01 0.01 0.02 0.02 0.02 0.01 0.00 0.00 0.00 0.00 0.00 0.00 0.00 0.00 0.00 0.00
0.03 0.03 0.03 0.03 0.03 0.03 0.02 0.02 0.02 0.01 0.01 0.01 0.01 0.01 0.01 0.00 0.00 0.00 0.00 0.00 0.00 0.00 0.00 0.00 0.01 0.01 0.02 0.02 0.01 0.00 0.00 0.00 0.00 0.00 0.00 0.00 0.00 0.00
0.03 0.03 0.03 0.02 0.02 0.02 0.02 0.01 0.01 0.01 0.01 0.01 0.01 0.01 0.01 0.01 0.00 0.00 0.00 0.00 0.00 0.00 0.00 0.00 0.00 0.01 0.01 0.01 0.01 0.01 0.00 0.00 0.00 0.00 0.00 0.00 0.00 0.00
0.02 0.02 0.02 0.03 0.03 0.02 0.02 0.02 0.02 0.01 0.01 0.01 0.01 0.01 0.01 0.01 0.01 0.01 0.00 0.00 0.00 0.00 0.00 0.00 0.00 0.00 0.00 0.00 0.00 0.00 0.00 0.00 0.00 0.00 0.00 0.00 0.00 0.00
0.02 0.02 0.02 0.02 0.03 0.02 0.02 0.02 0.01 0.01 0.01 0.01 0.01 0.01 0.01 0.01 0.01 0.01 0.00 0.00 0.00 0.00 0.00 0.00 0.00 0.00 0.00 0.00 0.00 0.00 0.00 0.00 0.00 0.00 0.01 0.01 0.00 0.00
0.02 0.02 0.01 0.01 0.02 0.02 0.02 0.02 0.02 0.01 0.01 0.01 0.01 0.01 0.01 0.01 0.01 0.01 0.00 0.00 0.00 0.00 0.00 0.00 0.01 0.01 0.01 0.00 0.00 0.00 0.01 0.01 0.00 0.00 0.00 0.01 0.01 0.00
0.02 0.01 0.01 0.01 0.01 0.02 0.02 0.02 0.02 0.02 0.02 0.02 0.01 0.01 0.01 0.01 0.01 0.01 0.01 0.01 0.01 0.01 0.00 0.00 0.01 0.02 0.03 0.02 0.01 0.00 0.00 0.01 0.01 0.01 0.01 0.00 0.00 0.00
0.01 0.01 0.01 0.01 0.01 0.01 0.01 0.01 0.01 0.02 0.02 0.02 0.01 0.01 0.01 0.01 0.01 0.01 0.01 0.01 0.01 0.01 0.01 0.00 0.00 0.01 0.01 0.01 0.01 0.00 0.00 0.01 0.02 0.03 0.03 0.02 0.01 0.01
0.01 0.01 0.01 0.01 0.01 0.01 0.01 0.01 0.01 0.01 0.01 0.01 0.01 0.01 0.01 0.01 0.01 0.01 0.01 0.01 0.01 0.01 0.01 0.00 0.00 0.00 0.01 0.01 0.01 0.01 0.00 0.00 0.00 0.01 0.03 0.04 0.05 0.04
0.01 0.01 0.01 0.01 0.01 0.01 0.01 0.01 0.01 0.01 0.01 0.01 0.01 0.01 0.01 0.01 0.01 0.02 0.01 0.01 0.01 0.01 0.01 0.01 0.00 0.00 0.01 0.01 0.01 0.01 0.01 0.01 0.01 0.01 0.01 0.02 0.03 0.03
MSLP
1017.28 1017.58 1017.87 1018.15 1018.41 1018.64 1018.83 1019.00 1019.14 1019.27 1019.39 1019.50 1019.60 1019.68 1019.72 1019.70 1019.61 1019.45 1019.21 1018.93 1018.61 1018.30 1018.01 1017.77 1017.58 1017.45 1017.35 1017.27 1017.18 1017.07 1016.92 1016.72 1016.48 1016.21 1015.95 1015.71 1015.54 1015.44
1016.85 1017.16 1017.47 1017.76 1018.04 1018.28 1018.50 1018.70 1018.89 1019.07 1019.26 1019.44 1019.60 1019.73 1019.80 1019.79 1019.69 1019.51 1019.23 1018.90 1018.53 1018.15 1017.81 1017.51 1017.28 1017.11 1016.99 1016.90 1016.81 1016.70 1016.56 1016.36 1016.13 1015.86 1015.59 1015.33 1015.12 1014.97
1016.51 1016.86 1017.20 1017.52 1017.82 1018.09 1018.34 1018.57 1018.80 1019.03 1019.26 1019.49 1019.69 1019.85 1019.94 1019.93 1019.83 1019.61 1019.30 1018.91 1018.48 1018.05 1017.64 1017.29 1017.01 1016.80 1016.65 1016.54 1016.44 1016.34 1016.20 1016.03 1015.81 1015.56 1015.29 1015.03 1014.79 1014.62
1016.28 1016.68 1017.06 1017.43 1017.77 1018.07 1018.35 1018.61 1018.87 1019.12 1019.38 1019.64 1019.86 1020.03 1020.13 1020.12 1020.00 1019.76 1019.42 1018.99 1018.52 1018.03 1017.58 1017.18 1016.85 1016.60 1016.42 1016.29 1016.18 1016.07 1015.94 1015.78 1015.58 1015.35 1015.09 1014.84 1014.60 1014.39
1016.16 1016.61 1017.05 1017.46 1017.84 1018.18 1018.48 1018.76 1019.04 1019.31 1019.59 1019.85 1020.08 1020.26 1020.36 1020.34 1020.21 1019.96 1019.60 1019.15 1018.66 1018.15 1017.66 1017.23 1016.87 1016.59 1016.37 1016.21 1016.08 1015.96 1015.82 1015.67 1015.48 1015.26 1015.02 1014.77 1014.52 1014.30
1016.14 1016.64 1017.12 1017.58 1017.99 1018.35 1018.67 1018.97 1019.25 1019.53 1019.81 1020.07 1020.30 1020.48 1020.58 1020.57 1020.45 1020.20 1019.85 1019.41 1018.92 1018.41 1017.92 1017.48 1017.10 1016.79 1016.54 1016.35 1016.18 1016.03 1015.88 1015.71 1015.51 1015.29 1015.05 1014.79 1014.54 1014.30
1016.20 1016.72 1017.24 1017.71 1018.14 1018.52 1018.85 1019.15 1019.43 1019.71 1019.98 1020.25 1020.48 1020.66 1020.77 1020.78 1020.68 1020.46 1020.14 1019.74 1019.28 1018.81 1018.34 1017.91 1017.52 1017.19 1016.92 1016.68 1016.47 1016.28 1016.08 1015.87 1015.64 1015.39 1015.14 1014.86 1014.59 1014.32
1016.32 1016.84 1017.35 1017.83 1018.26 1018.63 1018.96 1019.26 1019.54 1019.81 1020.08 1020.35 1020.59 1020.78 1020.91 1020.95 1020.89 1020.72 1020.46 1020.12 1019.72 1019.29 1018.87 1018.46 1018.08 1017.74 1017.44 1017.16 1016.89 1016.63 1016.37 1016.10 1015.81 1015.52 1015.23 1014.93 1014.63 1014.33
1016.50 1016.99 1017.47 1017.92 1018.32 1018.67 1018.99 1019.28 1019.55 1019.82 1020.10 1020.37 1020.62 1020.84 1021.00 1021.08 1021.07 1020.97 1020.78 1020.50 1020.18 1019.82 1019.44 1019.07 1018.71 1018.36 1018.03 1017.70 1017.37 1017.03 1016.69 1016.34 1015.99 1015.64 1015.30 1014.96 1014.63 1014.30
1016.74 1017.17 1017.59 1017.99 1018.35 1018.67 1018.96 1019.24 1019.50 1019.78 1020.06 1020.34 1020.62 1020.86 1021.06 1021.18 1021.23 1021.19 1021.06 1020.86 1020.61 1020.31 1019.99 1019.66 1019.31 1018.97 1018.61 1018.23 1017.84 1017.43 1017.01 1016.58 1016.15 1015.74 1015.34 1014.96 1014.60 1014.26
1017.04 1017.40 1017.75 1018.09 1018.40 1018.68 1018.94 1019.20 1019.46 1019.73 1020.02 1020.32 1020.61 1020.88 1021.11 1021.28 1021.37 1021.38 1021.31 1021.17 1020.98 1020.74 1020.47 1020.17 1019.85 1019.50 1019.12 1018.71 1018.27 1017.80 1017.30 1016.80 1016.31 1015.84 1015.39 1014.98 1014.59 1014.23
1017.40 1017.69 1017.98 1018.25 1018.51 1018.75 1018.99 1019.22 1019.48 1019.75 1020.05 1020.35 1020.66 1020.95 1021.19 1021.38 1021.50 1021.54 1021.52 1021.42 1021.27 1021.07 1020.84 1020.58 1020.27 1019.94 1019.55 1019.12 1018.65 1018.13 1017.59 1017.04 1016.49 1015.97 1015.49 1015.05 1014.64 1014.26
1017.81 1018.05 1018.28 1018.50 1018.72 1018.92 1019.13 1019.35 1019.60 1019.87 1020.16 1020.47 1020.78 1021.07 1021.32 1021.51 1021.64 1021.69 1021.68 1021.61 1021.48 1021.32 1021.11 1020.88 1020.60 1020.28 1019.91 1019.48 1018.99 1018.46 1017.89 1017.31 1016.73 1016.18 1015.66 1015.19 1014.77 1014.37
1018.25 1018.45 1018.64 1018.83 1019.01 1019.19 1019.38 1019.58 1019.82 1020.08 1020.37 1020.67 1020.96 1021.24 1021.48 1021.66 1021.77 1021.82 1021.81 1021.74 1021.63 1021.48 1021.30 1021.09 1020.84 1020.55 1020.20 1019.79 1019.32 1018.79 1018.22 1017.62 1017.03 1016.45 1015.91 1015.42 1014.96 1014.53
1018.65 1018.84 1019.01 1019.18 1019.34 1019.50 1019.67 1019.87 1020.09 1020.34 1020.61 1020.90 1021.18 1021.43 1021.64 1021.79 1021.89 1021.92 1021.90 1021.82 1021.71 1021.58 1021.42 1021.24 1021.03 1020.77 1020.46 1020.08 1019.64 1019.14 1018.58 1017.98 1017.37 1016.77 1016.20 1015.66 1015.16 1014.68
1018.97 1019.16 1019.33 1019.49 1019.63 1019.78 1019.95 1020.13 1020.34 1020.58 1020.83 1021.10 1021.35 1021.58 1021.76 1021.89 1021.96 1021.97 1021.93 1021.85 1021.74 1021.62 1021.49 1021.34 1021.16 1020.95 1020.68 1020.35 1019.95 1019.47 1018.93 1018.33 1017.71 1017.07 1016.45 1015.85 1015.27 1014.72
1019.17 1019.36 1019.53 1019.68 1019.82 1019.97 1020.12 1020.30 1020.50 1020.72 1020.96 1021.20 1021.43 1021.63 1021.79 1021.90 1021.95 1021.94 1021.89 1021.82 1021.72 1021.61 1021.50 1021.38 1021.25 1021.08 1020.86 1020.57 1020.20 1019.75 1019.22 1018.62 1017.96 1017.28 1016.58 1015.90 1015.22 1014.56
1019.20 1019.40 1019.56 1019.72 1019.85 1019.99 1020.14 1020.30 1020.49 1020.70 1020.93 1021.16 1021.37 1021.56 1021.70 1021.79 1021.83 1021.82 1021.77 1021.70 1021.62 1021.53 1021.45 1021.37 1021.27 1021.15 1020.97 1020.72 1020.37 1019.94 1019.40 1018.77 1018.08 1017.33 1016.54 1015.74 1014.95 1014.16
1019.10 1019.28 1019.44 1019.58 1019.71 1019.84 1019.98 1020.14 1020.32 1020.52 1020.74 1020.96 1021.16 1021.34 1021.47 1021.55 1021.59 1021.59 1021.55 1021.49 1021.43 1021.37 1021.32 1021.27 1021.21 1021.12 1020.97 1020.75 1020.42 1019.99 1019.44 1018.78 1018.03 1017.20 1016.31 1015.40 1014.47 1013.54
1018.88 1019.04 1019.18 1019.31 1019.42 1019.55 1019.68 1019.83 1020.01 1020.20 1020.41 1020.62 1020.82 1020.99 1021.12 1021.21 1021.25 1021.25 1021.23 1021.19 1021.15 1021.12 1021.10 1021.08 1021.05 1020.98 1020.86 1020.66 1020.34 1019.90 1019.33 1018.64 1017.83 1016.92 1015.94 1014.91 1013.85 1012.78
1018.59 1018.72 1018.84 1018.94 1019.05 1019.16 1019.28 1019.43 1019.60 1019.79 1019.99 1020.20 1020.39 1020.56 1020.68 1020.77 1020.82 1020.83 1020.82 1020.80 1020.78 1020.78 1020.78 1020.78 1020.78 1020.74 1020.63 1020.44 1020.13 1019.69 1019.11 1018.38 1017.53 1016.56 1015.50 1014.37 1013.21 1012.03
1018.27 1018.37 1018.46 1018.54 1018.63 1018.73 1018.84 1018.98 1019.15 1019.33 1019.53 1019.73 1019.91 1020.06 1020.18 1020.26 1020.31 1020.33 1020.33 1020.32 1020.32 1020.34 1020.36 1020.39 1020.40 1020.38 1020.29 1020.12 1019.82 1019.39 1018.80 1018.07 1017.20 1016.19 1015.09 1013.90 1012.67 1011.41
1017.95 1018.02 1018.07 1018.14 1018.20 1018.29 1018.40 1018.53 1018.69 1018.86 1019.05 1019.23 1019.39 1019.53 1019.64 1019.71 1019.75 1019.76 1019.77 1019.77 1019.78 1019.81 1019.85 1019.90 1019.93 1019.93 1019.86 1019.71 1019.43 1019.02 1018.46 1017.74 1016.88 1015.88 1014.77 1013.57 1012.31 1011.02
Thickness
5569 5568 5567 5565 5563 5560 5557 5554 5550 5548 5549 5548 5545 5544 5541 5539 5537 5536 5534 5533 5531 5530 5528 5526 5524 5522 5519 5517 5515 5513 5512 5510 5508 5506 5505 5505 5504 5503
5559 5558 5556 5554 5552 5550 5547 5544 5542 5539 5538 5537 5534 5533 5532 5530 5528 5527 5525 5524 5522 5521 5519 5517 5515 5513 5510 5508 5505 5503 5502 5500 5498 5497 5496 5495 5495 5494
5547 5547 5546 5544 5542 5539 5536 5534 5531 5529 5527 5527 5524 5524 5522 5521 5520 5518 5516 5515 5513 5512 5510 5508 5505 5503 5501 5498 5496 5494 5492 5491 5489 5488 5487 5486 5485 5484
5537 5536 5535 5534 5531 5529 5526 5524 5521 5519 5517 5516 5515 5513 5513 5511 5510 5509 5507 5505 5503 5502 5500 5498 5496 5493 5490 5488 5486 5485 5483 5481 5479 5478 5477 5476 5474 5474
5525 5525 5524 5523 5521 5519 5516 5514 5512 5510 5507 5506 5505 5503 5502 5501 5500 5499 5497 5496 5493 5491 5490 5487 5485 5483 5480 5478 5476 5475 5473 5471 5470 5468 5466 5465 5464 5463
5514 5514 5513 5513 5511 5509 5507 5504 5502 5500 5498 5496 5495 5493 5492 5490 5488 5487 5487 5485 5483 5481 5479 5476 5474 5472 5470 5468 5466 5464 5462 5461 5459 5458 5456 5455 5454 5453
5503 5502 5502 5502 5501 5500 5498 5495 5493 5490 5488 5486 5484 5483 5481 5479 5477 5475 5474 5474 5472 5469 5468 5466 5464 5463 5460 5458 5455 5453 5452 5451 5449 5448 5447 5446 5444 5444
5491 5490 5490 5490 5489 5489 5487 5486 5484 5481 5478 5476 5474 5472 5470 5467 5465 5463 5460 5460 5461 5459 5455 5456 5453 5451 5449 5447 5445 5443 5442 5440 5439 5438 5437 5436 5435 5434
5479 5479 5478 5478 5477 5477 5475 5474 5472 5470 5468 5465 5463 5461 5459 5457 5454 5452 5449 5445 5443 5443 5442 5445 5442 5440 5438 5435 5434 5432 5431 5430 5428 5427 5426 5425 5425 5424
5466 5466 5466 5465 5465 5464 5463 5461 5459 5457 5455 5453 5451 5449 5447 5444 5441 5439 5436 5434 5432 5430 5428 5429 5430 5428 5427 5425 5423 5421 5419 5418 5417 5416 5415 5414 5413 5413
5453 5453 5454 5453 5454 5453 5451 5449 5447 5445 5443 5441 5439 5437 5434 5431 5429 5426 5423 5422 5421 5420 5415 5414 5415 5415 5416 5415 5412 5410 5407 5406 5405 5404 5403 5402 5402 5402
5440 5440 5440 5441 5440 5440 5439 5437 5434 5432 5430 5428 5425 5423 5421 5418 5415 5412 5410 5407 5405 5405 5404 5401 5400 5399 5403 5405 5401 5399 5396 5394 5393 5392 5391 5390 5390 5390
5426 5426 5426 5427 5427 5426 5425 5423 5421 5419 5417 5414 5412 5410 5407 5405 5402 5399 5397 5394 5392 5390 5389 5387 5386 5384 5383 5388 5391 5388 5385 5383 5382 5381 5380 5379 5378 5377
5412 5412 5412 5413 5413 5412 5410 5409 5407 5405 5402 5400 5398 5396 5394 5391 5389 5387 5385 5382 5380 5378 5377 5375 5373 5372 5371 5373 5375 5377 5375 5372 5371 5370 5369 5369 5368 5367
5398 5398 5399 5398 5397 5395 5394 5394 5392 5389 5388 5386 5384 5382 5380 5378 5377 5375 5373 5371 5370 5369 5367 5365 5363 5361 5360 5360 5361 5363 5363 5363 5361 5360 5359 5358 5358 5358
5384 5384 5384 5382 5381 5380 5379 5377 5375 5374 5373 5371 5370 5368 5367 5366 5364 5363 5362 5361 5361 5360 5357 5356 5354 5352 5351 5350 5350 5350 5349 5349 5351 5350 5350 5350 5350 5349
5371 5370 5368 5367 5366 5365 5363 5363 5361 5360 5359 5358 5357 5356 5355 5354 5352 5351 5350 5349 5348 5347 5348 5347 5345 5344 5343 5341 5341 5341 5340 5339 5339 5339 5340 5342 5343 5342
5358 5356 5354 5353 5352 5351 5350 5348 5347 5347 5346 5345 5344 5343 5343 5342 5341 5340 5338 5338 5337 5336 5336 5336 5336 5336 5336 5335 5333 5332 5330 5330 5330 5329 5329 5330 5336 5337
5344 5342 5341 5340 5339 5338 5337 5335 5335 5334 5333 5333 5332 5331 5330 5330 5329 5328 5328 5327 5327 5326 5326 5325 5324 5323 5323 5325 5326 5323 5321 5322 5322 5323 5322 5321 5324 5329
5331 5330 5329 5327 5326 5325 5324 5324 5323 5322 5321 5320 5319 5319 5319 5318 5319 5318 5318 5317 5317 5317 5317 5316 5314 5313 5311 5312 5314 5315 5313 5312 5314 5315 5316 5317 5319 5322
5319 5318 5317 5316 5315 5314 5313 5312 5312 5311 5310 5309 5308 5308 5308 5308 5309 5309 5309 5309 5309 5309 5309 5309 5307 5306 5304 5304 5304 5308 5308 5306 5306 5306 5309 5311 5314 5317
5307 5307 5306 5305 5304 5303 5302 5302 5301 5301 5299 5298 5298 5298 5298 5299 5300 5300 5300 5300 5300 5300 5301 5301 5300 5299 5297 5296 5297 5299 5301 5303 5303 5303 5303 5303 5303 5307
5297 5297 5296 5295 5294 5293 5292 5291 5291 5290 5290 5289 5289 5289 5290 5290 5291 5291 5292 5292 5293 5293 5293 5293 5293 5292 5290 5289 5289 5291 5293 5296 5298 5300 5302 5301 5301 5301